Date,TemperatureHighF,TemperatureAvgF,TemperatureLowF,DewpointHighF,DewpointAvgF,DewpointLowF,HumidityHigh,HumidityAvg,HumidityLow,PressureMaxIn,PressureMinIn,WindSpeedMaxMPH,WindSpeedAvgMPH,GustSpeedMaxMPH,PrecipitationSumIn
2013-1-1,28,21,11,23,18,9,95,87,72,30.28,30.12,9,1,9,0.01
2013-1-2,36,22,12,29,18,9,95,86,71,30.27,30.13,15,4,17,0.01
2013-1-3,38,25,16,27,20,13,93,83,60,30.44,30.26,17,5,17,0.01
2013-1-4,45,31,16,30,24,13,91,75,52,30.39,30.21,22,8,22,0.00
2013-1-5,49,37,28,34,29,21,86,73,52,30.26,30.07,23,11,23,0.00
2013-1-6,30,30,30,25,24,24,82,80,80,30.39,30.23,9,4,9,0.00
2013-1-7,54,40,28,30,26,21,80,59,37,30.24,30.00,28,13,28,0.00
2013-1-8,58,41,27,37,31,23,86,69,44,30.20,29.95,26,10,26,0.00
2013-1-9,54,40,24,37,31,20,93,71,49,30.40,30.20,14,5,16,0.00
2013-1-10,49,45,41,47,42,-10,99,92,10,30.21,29.73,15,6,15,0.45
2013-1-11,60,51,39,50,45,26,99,81,39,29.85,29.54,30,14,30,0.01
2013-1-12,60,28,21,47,19,10,85,69,59,30.11,29.85,24,14,25,0.00
2013-1-13,22,19,12,11,8,7,80,62,54,30.33,30.08,24,12,24,0.00
2013-1-14,33,23,9,16,11,6,89,61,44,30.45,30.30,11,5,11,0.00
2013-1-15,25,25,25,12,12,12,57,57,57,30.33,30.29,2,2,2,0.00
2013-1-17,87,58,50,73,38,32,64,47,40,30.46,30.39,53,9,53,3.78
2013-1-19,66,47,29,33,27,22,77,49,25,30.23,30.06,13,4,13,3.78
2013-1-20,54,34,-20,33,22,-31,84,61,42,30.37,30.16,21,7,21,0.00
2013-1-21,39,12,-20,18,-2,-31,70,53,40,30.40,30.24,12,5,12,0.00
2013-1-22,47,28,18,24,17,10,80,63,40,30.27,30.15,13,5,13,0.00
2013-1-23,59,35,16,36,24,12,90,66,39,30.32,30.11,18,4,18,0.00
2013-1-24,31,24,19,23,16,11,93,71,50,30.35,30.09,17,7,17,0.00
2013-1-25,54,36,19,30,25,16,91,67,38,30.24,30.11,8,2,8,0.00
2013-1-26,59,44,25,41,32,21,86,66,39,30.22,29.99,21,8,22,0.01
2013-1-27,70,53,43,58,50,32,99,89,63,30.00,29.71,30,15,30,0.01
2013-1-28,75,59,35,62,52,34,99,79,43,29.82,29.63,36,15,36,0.00
2013-1-29,65,44,38,61,40,33,95,86,74,29.69,29.53,23,13,23,0.01
2013-1-30,38,34,20,33,29,16,85,82,63,29.98,29.64,16,10,16,0.01
2013-1-31,30,24,16,23,16,7,84,71,51,30.42,29.94,23,9,24,0.00
2013-2-1,34,25,13,13,10,6,79,54,37,30.40,30.25,19,11,19,0.00
2013-2-2,58,41,34,34,20,10,58,42,36,30.25,29.91,18,14,18,0.00
2013-2-3,58,45,25,32,27,19,82,52,29,29.99,29.56,27,9,27,0.00
2013-2-4,58,44,30,35,31,23,84,60,39,29.69,29.51,21,7,21,0.00
2013-2-5,67,46,26,35,28,23,90,57,24,29.76,29.63,14,4,15,0.00
2013-2-6,60,50,38,56,43,31,97,78,56,29.75,29.54,24,9,24,0.00
2013-2-7,56,48,29,52,42,25,99,81,51,29.92,29.54,24,10,24,0.18
2013-2-8,48,35,26,37,30,24,99,85,63,30.04,29.83,14,6,14,0.00
2013-2-9,52,40,34,43,37,28,99,87,69,29.84,29.34,28,14,28,0.04
2013-2-10,52,43,32,46,33,24,99,70,45,29.77,29.22,45,20,45,0.01
2013-2-11,56,35,25,26,23,19,84,62,34,29.93,29.77,17,6,17,0.00
2013-2-12,42,35,24,31,26,19,96,71,51,29.88,29.71,10,4,10,0.00
2013-2-13,60,41,23,32,26,19,96,62,23,29.72,29.59,26,10,26,0.00
2013-2-14,51,38,33,35,27,20,84,65,48,30.32,29.63,24,8,24,0.00
2013-2-15,44,31,19,22,18,14,87,61,35,30.45,30.32,21,10,21,0.00
2013-2-16,50,32,13,31,20,8,85,63,38,30.40,30.03,30,8,30,0.00
2013-2-17,69,48,26,38,30,22,92,56,21,30.03,29.62,28,9,28,0.00
2013-2-18,55,46,26,41,30,17,76,55,38,30.18,29.51,43,20,43,0.04
2013-2-19,47,33,16,22,18,12,86,55,35,30.38,30.18,15,6,15,0.00
2013-2-20,32,29,24,30,20,8,95,74,38,30.28,30.03,20,9,20,0.11
2013-2-21,28,23,14,26,22,12,97,94,89,30.03,29.74,17,10,17,0.00
2013-2-22,26,15,5,17,10,3,91,82,70,30.16,29.94,17,7,17,0.00
2013-2-23,37,21,3,26,16,0,91,80,62,30.12,29.93,15,5,15,0.08
2013-2-24,48,37,26,35,29,21,86,73,58,29.94,29.81,18,7,18,0.00
2013-2-25,36,33,31,33,31,29,99,92,82,29.92,29.72,32,15,32,0.15
2013-2-26,35,30,24,30,27,21,99,90,77,29.96,29.77,29,13,30,0.12
2013-2-27,38,31,24,28,26,22,97,83,66,30.21,29.95,30,12,30,0.01
2013-2-28,36,31,24,29,26,21,90,82,74,30.27,30.20,21,11,21,0.00
2013-3-1,36,29,18,28,24,-23,91,80,66,30.38,30.25,23,9,23,0.00
2013-3-2,41,28,12,27,20,-16,93,75,10,30.40,30.17,10,4,10,0.19
2013-3-3,57,42,29,41,33,25,85,69,53,30.17,29.65,21,8,21,0.00
2013-3-4,47,42,33,36,6,-11,89,34,10,30.12,29.60,10,2,11,0.00
2013-3-5,44,38,-2,28,11,-35,84,42,10,30.42,30.11,100,10,100,0.04
2013-3-6,47,35,22,29,23,18,88,64,45,30.45,30.20,16,6,16,0.00
2013-3-7,67,50,34,35,30,24,71,48,27,30.20,30.02,30,13,30,0.00
2013-3-8,61,53,46,49,41,32,80,65,50,30.11,29.92,24,13,24,0.00
2013-3-9,60,54,42,58,52,40,99,91,75,29.93,29.60,25,11,27,0.66
2013-3-10,42,33,29,41,29,22,96,86,76,30.08,29.64,35,21,42,0.02
2013-3-11,50,35,23,32,23,19,85,64,36,30.08,29.99,21,9,22,0.00
2013-3-12,54,44,29,38,31,24,85,61,40,30.39,30.04,26,7,26,0.00
2013-3-13,32,29,27,26,24,22,82,79,76,30.41,30.37,3,1,3,0.00
2013-3-14,80,58,36,49,42,29,82,58,28,30.24,30.05,17,4,17,0.00
2013-3-15,82,62,45,54,48,39,87,62,34,30.09,29.69,24,8,24,0.00
2013-3-16,66,48,37,50,39,30,85,71,58,29.97,29.70,26,12,26,0.00
2013-3-17,42,38,35,37,33,28,95,81,73,29.98,29.66,21,8,22,0.01
2013-3-18,59,46,37,38,32,22,98,63,25,30.02,29.71,31,9,31,0.00
2013-3-19,57,44,31,33,26,19,81,51,30,30.26,30.00,18,7,19,0.00
2013-3-20,51,39,27,31,23,16,95,56,32,30.39,30.00,17,6,17,0.00
2013-3-21,50,40,34,31,24,19,86,53,36,30.02,29.70,30,14,30,0.00
2013-3-22,52,39,31,38,33,30,96,79,55,29.94,29.81,14,7,14,0.00
2013-3-23,37,34,31,33,32,30,98,94,84,29.94,29.81,22,8,24,0.17
2013-3-24,35,29,23,30,24,20,99,82,60,30.14,29.89,36,19,36,0.00
2013-3-25,35,28,22,23,20,17,84,71,56,30.35,30.13,28,14,28,0.00
2013-3-26,50,34,16,31,23,13,90,66,45,30.40,30.17,17,5,17,0.00
2013-3-27,64,48,37,40,32,23,72,53,38,30.18,30.04,25,10,27,0.00
2013-3-28,69,51,31,51,40,28,94,69,46,30.14,30.03,12,4,12,0.00
2013-3-29,74,60,40,58,51,38,96,73,52,30.13,30.00,15,6,17,0.00
2013-3-30,74,60,52,60,54,50,94,84,59,30.03,29.86,21,6,21,0.20
2013-3-31,68,56,42,53,45,40,99,71,37,30.04,29.93,33,7,33,0.01
2013-4-1,52,41,36,41,34,27,89,75,59,30.27,29.94,21,8,21,0.12
2013-4-2,43,38,34,30,28,25,83,67,52,30.26,30.18,14,6,16,0.06
2013-4-3,42,39,37,35,32,26,90,76,58,30.30,30.20,17,6,19,0.00
2013-4-4,59,47,38,46,40,35,94,78,58,30.23,30.08,12,5,12,0.00
2013-4-5,66,53,39,50,44,36,91,73,54,30.14,29.80,29,12,32,0.00
2013-4-6,76,63,54,54,48,45,78,62,39,29.86,29.69,33,12,33,0.00
2013-4-7,72,60,51,60,53,44,94,79,61,29.86,29.65,23,7,23,0.00
2013-4-8,73,66,60,63,61,58,96,84,69,29.68,29.57,22,12,24,0.00
2013-4-9,75,58,32,65,54,31,96,85,70,29.99,29.55,36,17,36,0.56
2013-4-10,33,32,-21,32,30,-22,96,92,91,30.00,29.83,31,3,34,0.02
2013-4-11,54,38,28,40,31,25,92,77,50,29.94,29.71,22,5,22,0.17
2013-4-12,49,40,29,39,33,27,91,76,66,30.02,29.84,17,8,17,0.00
2013-4-13,72,55,33,55,44,31,94,67,50,30.04,29.60,30,11,30,0.00
2013-4-14,74,64,55,60,48,33,73,57,32,29.73,29.46,35,16,35,0.00
2013-4-15,57,53,46,42,35,29,58,51,38,29.94,29.72,22,10,22,0.00
2013-4-16,49,45,43,42,36,31,95,72,58,30.05,29.90,22,12,23,0.01
2013-4-17,46,44,41,46,43,40,99,99,94,29.98,29.67,24,10,24,0.15
2013-4-18,42,37,32,40,32,26,97,82,67,30.06,29.69,36,20,36,0.02
2013-4-19,64,46,29,39,31,25,86,61,35,30.09,29.99,28,12,29,0.00
2013-4-20,64,53,40,41,36,31,69,52,41,30.09,29.96,21,10,21,0.00
2013-4-21,69,61,51,48,44,38,69,54,41,30.13,30.03,33,13,33,0.01
2013-4-22,73,56,38,59,48,36,95,73,58,30.08,29.80,34,12,34,0.38
2013-4-23,39,34,31,36,31,27,98,90,74,30.25,29.97,33,17,33,0.57
2013-4-24,59,43,26,41,34,25,98,72,40,30.29,30.18,20,7,20,0.00
2013-4-25,69,54,35,46,40,31,89,60,38,30.29,30.00,30,10,30,0.00
2013-4-26,59,53,51,50,47,38,96,83,48,30.13,30.03,27,8,27,0.17
2013-4-27,68,55,49,57,52,48,99,88,63,30.13,29.99,14,6,14,0.01
2013-4-28,82,63,46,63,55,46,99,77,42,30.01,29.75,24,10,24,0.00
2013-4-29,87,72,56,65,59,53,97,66,43,29.78,29.59,27,12,29,0.00
2013-4-30,84,73,62,65,59,53,84,62,44,29.76,29.64,32,17,32,0.00
2013-5-1,73,58,39,64,51,36,92,79,60,30.26,29.75,34,14,36,0.08
2013-5-2,52,41,35,38,34,29,96,79,43,30.46,30.21,36,17,36,0.78
2013-5-3,60,46,33,40,34,30,89,66,39,30.38,30.00,26,11,26,0.00
2013-5-4,50,44,36,42,37,31,89,77,63,30.09,29.92,30,14,30,0.00
2013-5-5,63,50,42,53,46,40,97,86,69,30.16,30.06,21,8,21,0.00
2013-5-6,70,55,39,57,49,39,99,83,57,30.14,30.01,11,3,11,0.00
2013-5-7,68,60,48,58,54,47,96,80,68,30.07,30.00,16,6,16,0.00
2013-5-8,67,67,67,56,56,56,70,70,70,30.00,30.00,8,8,10,0.00
2013-5-9,74,65,59,61,58,56,93,79,63,30.00,29.91,12,6,12,0.64
2013-5-10,72,61,52,58,54,50,98,79,53,30.09,29.98,19,8,19,0.00
2013-5-11,69,59,46,54,46,38,95,67,35,30.26,30.07,24,8,24,0.02
2013-5-12,71,59,40,50,44,34,94,62,41,30.26,30.05,18,8,18,0.00
2013-5-13,88,68,48,64,54,42,85,62,40,30.08,29.93,17,6,17,0.00
2013-5-14,90,76,63,62,55,48,73,49,29,29.95,29.82,27,14,27,0.00
2013-5-15,82,71,62,67,61,56,90,72,56,29.88,29.79,26,11,26,0.00
2013-5-16,68,66,64,65,64,60,97,95,91,29.85,29.81,9,4,9,0.00
2013-5-17,83,71,58,68,63,56,99,79,57,29.91,29.82,17,6,17,0.00
2013-5-18,86,78,68,75,70,59,95,77,60,29.87,29.63,25,11,25,0.00
2013-5-19,79,74,65,71,67,60,94,79,64,29.79,29.53,21,13,21,0.19
2013-5-20,116,70,54,71,61,45,97,73,10,29.82,29.65,122,7,122,0.19
2013-5-21,74,64,52,57,53,49,89,69,46,29.87,29.74,16,6,16,0.00
2013-5-22,78,64,50,60,54,48,94,71,49,29.95,29.81,21,7,67,0.00
2013-5-23,75,64,56,60,55,51,88,72,57,30.16,29.94,15,6,15,0.00
2013-5-24,79,69,58,69,62,54,87,78,68,30.20,30.05,20,11,20,0.00
2013-5-25,79,75,66,67,66,64,94,76,67,30.11,29.95,27,13,27,0.00
2013-5-26,79,79,73,70,67,67,88,68,67,30.01,29.85,22,14,22,0.00
2013-5-27,83,76,71,72,70,68,93,82,70,29.86,29.61,31,18,31,0.00
2013-5-28,86,77,72,76,70,67,91,80,65,29.76,29.60,33,14,33,0.00
2013-5-29,82,73,63,71,67,60,92,82,67,29.75,29.55,37,17,37,0.21
2013-5-30,81,69,59,68,62,53,99,80,58,29.77,29.54,29,8,29,1.84
2013-5-31,84,75,67,72,67,13,98,78,10,29.77,29.63,14,5,14,0.00
2013-6-1,74,66,57,64,56,50,94,71,57,30.07,29.75,22,10,22,0.01
2013-6-2,74,62,51,54,50,48,91,67,43,30.15,30.00,101,10,101,0.80
2013-6-3,82,68,54,65,58,51,92,71,47,30.02,29.77,24,11,28,0.00
2013-6-4,86,76,66,71,66,22,89,73,10,29.94,29.71,35,10,35,0.04
2013-6-5,75,69,61,68,64,57,96,84,70,30.02,29.83,27,8,27,0.26
2013-6-6,77,66,56,59,56,53,93,72,45,30.03,29.96,19,7,19,0.00
2013-6-7,82,69,53,61,57,51,95,70,45,30.04,29.89,10,3,12,0.00
2013-6-8,84,74,62,64,60,54,85,65,46,29.92,26.72,30,13,30,0.00
2013-6-9,78,78,78,62,62,62,57,57,57,29.77,28.41,14,14,17,0.00
2013-6-10,78,78,78,62,62,62,57,57,57,29.77,29.77,14,14,17,0.00
2013-6-11,78,78,78,62,62,62,57,57,57,29.77,29.77,14,14,17,0.00
2013-6-12,101,94,82,75,72,66,69,50,33,29.87,29.76,14,5,14,0.22
2013-6-13,90,81,65,71,66,56,74,60,51,30.00,29.85,17,8,17,0.00
2013-6-14,100,85,71,75,68,59,88,61,27,29.89,29.74,29,11,29,0.00
2013-6-15,92,81,75,71,68,65,87,65,42,29.89,29.76,34,10,34,0.00
2013-6-16,94,80,70,72,68,63,94,69,42,29.92,29.77,21,6,21,0.00
2013-6-17,85,75,66,71,67,64,97,78,58,29.94,29.70,29,7,29,0.38
2013-6-18,93,78,63,72,65,56,97,67,33,29.96,29.84,22,5,23,0.00
2013-6-19,87,77,65,72,67,59,91,73,52,29.95,29.81,23,10,23,0.35
2013-6-20,95,83,72,75,72,67,90,70,48,29.86,29.74,32,15,32,0.00
2013-6-21,97,86,76,74,71,68,77,62,42,29.85,29.76,30,16,30,0.00
2013-6-22,95,84,75,71,68,63,80,60,41,29.84,29.72,32,16,32,0.00
2013-6-23,96,84,76,72,69,64,77,61,39,29.80,29.70,30,15,30,0.00
2013-6-24,95,84,76,73,69,68,86,62,43,29.86,29.68,36,16,36,0.13
2013-6-25,97,85,77,74,72,68,87,65,44,29.86,29.60,40,17,40,0.04
2013-6-26,102,91,75,74,71,66,86,56,33,29.82,29.69,14,6,14,0.00
2013-6-27,104,94,69,76,70,61,94,49,35,30.05,29.77,59,9,59,1.88
2013-6-28,95,81,69,72,66,58,93,65,32,30.05,29.91,22,8,22,0.00
2013-6-29,98,78,64,63,58,33,86,55,30,30.00,29.86,27,10,27,0.00
2013-6-30,84,73,59,62,56,52,90,58,34,30.05,29.93,21,7,21,0.00
2013-7-1,84,70,55,58,53,47,91,58,30,30.14,30.05,18,6,18,0.00
2013-7-2,86,72,57,60,52,42,82,52,22,30.14,30.03,15,5,15,0.00
2013-7-3,88,72,62,58,53,48,76,54,27,30.11,29.95,21,4,21,0.37
2013-7-4,91,76,60,60,56,50,79,52,27,30.01,29.88,15,6,15,0.00
2013-7-5,92,80,67,63,60,55,79,53,32,29.95,29.82,30,12,30,0.00
2013-7-6,85,77,71,70,65,60,83,68,59,29.93,29.83,24,10,24,0.06
2013-7-7,100,86,74,67,64,60,74,50,28,29.96,29.87,27,14,27,0.06
2013-7-8,101,88,76,69,66,62,70,51,28,30.03,29.92,102,11,102,0.24
2013-7-9,107,91,77,72,67,61,75,49,23,30.00,29.83,26,12,26,0.00
2013-7-10,100,87,69,73,68,63,89,56,32,30.01,29.91,24,5,53,0.02
2013-7-11,93,84,74,73,68,63,78,59,45,30.06,29.90,18,8,19,0.14
2013-7-12,101,90,74,72,68,63,70,50,34,29.99,29.89,21,9,21,0.00
2013-7-13,101,88,76,74,70,67,80,56,39,29.99,29.88,21,9,21,0.00
2013-7-14,87,76,69,72,69,63,95,81,54,30.09,29.92,26,6,26,0.48
2013-7-15,80,71,63,71,64,12,97,81,10,30.19,30.08,22,5,22,0.27
2013-7-16,91,78,65,70,66,12,93,70,45,30.29,30.18,26,6,26,0.00
2013-7-17,92,80,68,73,69,18,95,73,10,30.32,30.19,14,4,14,1.51
2013-7-18,112,82,70,91,69,18,93,66,10,30.22,30.01,23,8,23,0.00
2013-7-19,98,86,73,71,62,16,81,50,10,30.05,29.88,22,9,22,0.00
2013-7-20,99,82,72,71,68,21,92,65,10,29.94,29.81,33,9,33,0.18
2013-7-21,90,79,70,75,71,65,96,79,57,29.91,29.81,19,8,19,0.04
2013-7-22,87,78,73,75,71,64,90,78,59,29.93,29.79,28,7,28,0.21
2013-7-23,93,82,68,75,70,63,93,67,50,29.97,29.78,39,8,39,0.71
2013-7-24,90,78,70,74,68,61,95,73,41,30.06,29.89,19,5,19,0.02
2013-7-25,88,78,69,74,70,64,90,76,58,30.07,30.00,44,6,44,0.00
2013-7-26,86,76,67,71,67,21,99,77,12,30.10,29.99,56,8,56,1.10
2013-7-27,81,71,62,66,59,9,88,68,54,30.13,29.97,15,6,15,0.18
2013-7-28,68,64,61,66,62,59,99,95,87,30.08,29.96,14,6,14,1.03
2013-7-29,85,74,52,75,69,-3,92,83,10,30.02,29.84,16,10,16,0.04
2013-7-30,81,76,71,75,72,70,99,90,78,30.09,29.94,10,4,11,0.00
2013-8-1,89,79,65,73,69,65,99,73,50,30.13,29.93,15,5,15,0.00
2013-8-2,87,81,70,78,74,66,98,79,72,29.95,29.82,17,10,17,0.25
2013-8-3,89,80,73,77,73,68,97,79,66,30.06,29.89,20,8,20,0.44
2013-8-4,80,75,71,74,72,70,99,93,81,30.12,29.99,21,6,21,0.97
2013-8-5,92,81,71,79,73,24,96,80,10,30.00,29.81,27,7,34,0.12
2013-8-6,86,81,71,74,72,66,97,75,66,29.95,29.81,14,6,14,0.01
2013-8-7,90,80,71,77,71,68,93,76,59,29.85,29.69,29,6,29,0.05
2013-8-8,82,74,68,72,70,65,99,86,68,29.88,29.74,29,6,30,1.44
2013-8-9,82,70,64,70,65,60,99,87,70,30.04,29.85,21,7,21,0.09
2013-8-10,86,74,62,69,65,61,99,76,52,30.10,29.97,13,4,13,0.00
2013-8-11,87,77,64,73,70,63,97,79,60,30.04,29.91,12,4,13,0.00
2013-8-12,89,78,69,76,72,67,96,81,61,29.98,29.86,19,6,19,0.00
2013-8-13,86,73,66,74,69,65,97,87,57,30.03,29.90,24,5,27,0.00
2013-8-14,83,73,62,66,63,61,99,75,49,30.08,29.95,12,4,12,0.00
2013-8-15,85,72,63,72,65,58,95,79,62,30.00,29.86,26,7,33,0.00
2013-8-16,83,71,62,69,64,61,98,81,57,30.04,29.94,11,4,11,0.00
2013-8-17,82,72,63,66,62,59,89,70,55,30.08,29.96,12,5,12,0.00
2013-8-18,84,74,63,66,62,56,88,69,50,30.05,29.93,15,6,15,0.00
2013-8-19,91,77,66,72,67,63,90,72,52,30.00,29.88,19,7,19,0.00
2013-8-20,92,79,67,70,67,64,91,69,45,29.96,29.87,17,8,17,0.00
2013-8-21,94,80,69,69,66,64,86,65,39,29.96,29.89,17,8,17,0.00
2013-8-22,94,81,69,72,68,64,91,67,42,29.99,29.89,17,7,17,0.00
2013-8-23,97,83,73,74,71,68,88,70,42,29.95,29.86,17,8,17,0.00
2013-8-24,95,83,72,74,72,70,92,71,48,30.01,29.91,21,9,21,0.00
2013-8-25,96,84,72,74,71,68,90,68,42,30.08,29.99,18,8,18,0.00
2013-8-26,95,84,73,72,70,68,88,66,41,30.07,29.95,22,9,22,0.00
2013-8-27,95,83,70,69,66,58,90,61,32,29.99,29.89,21,9,21,0.00
2013-8-28,94,82,46,74,70,8,94,70,10,29.95,29.88,14,6,14,0.00
2013-8-29,100,86,73,72,68,49,88,59,32,29.94,29.85,20,7,20,0.00
2013-8-30,105,87,72,72,67,55,85,55,21,29.88,29.75,13,5,13,0.00
2013-8-31,104,87,70,74,66,30,87,55,10,29.81,29.67,15,4,15,0.94
2013-9-1,92,81,70,75,69,13,78,66,10,29.92,29.69,16,6,16,0.09
2013-9-2,88,73,57,65,60,13,95,68,38,29.99,29.89,13,3,13,0.00
2013-9-3,90,74,56,65,60,54,97,66,36,30.02,29.91,11,3,11,0.00
2013-9-4,119,76,24,65,59,13,96,61,10,30.06,29.95,103,6,103,0.57
2013-9-5,84,80,78,66,61,61,64,53,52,30.07,29.96,10,5,10,0.00
2013-9-6,97,82,54,68,61,-2,84,54,10,30.02,29.87,98,13,98,3.56
2013-9-7,102,89,-29,70,66,-38,84,51,29,29.91,29.80,21,8,21,0.00
2013-9-8,102,99,82,64,64,60,52,32,29,29.85,29.74,15,12,15,0.00
2013-9-9,96,84,71,68,61,53,73,49,24,29.85,29.77,29,11,29,0.00
2013-9-10,96,83,70,68,62,59,75,51,31,29.99,29.84,27,10,28,0.00
2013-9-11,95,82,42,70,63,25,75,54,32,30.03,29.92,19,7,19,0.00
2013-9-12,80,74,71,72,69,60,93,84,71,30.07,29.98,14,6,14,0.19
2013-9-13,80,72,67,70,54,50,94,55,41,30.06,29.93,14,6,14,0.00
2013-9-14,87,74,63,65,58,50,74,59,45,29.95,29.81,17,7,21,0.00
2013-9-15,96,77,67,69,65,60,83,68,37,30.00,29.83,27,8,27,0.00
2013-9-16,75,75,75,69,69,69,83,83,83,30.08,29.99,8,8,9,0.00
2013-9-17,75,75,75,69,69,69,83,83,83,30.05,29.82,8,8,9,0.00
2013-9-18,93,79,70,69,67,62,91,68,40,29.85,29.70,33,11,33,0.00
2013-9-19,94,77,66,72,67,50,98,73,24,29.91,29.68,33,12,33,0.00
2013-9-20,77,66,55,66,55,49,96,72,42,30.01,29.88,19,6,19,0.00
2013-9-21,84,67,51,60,55,50,97,71,41,29.94,29.81,13,3,13,0.00
2013-9-22,79,66,58,56,53,48,88,64,39,29.84,29.71,15,6,15,0.00
2013-9-23,80,70,56,60,54,48,84,60,42,29.74,29.62,112,14,112,0.00
2013-9-24,80,73,56,60,56,52,89,57,46,29.83,29.69,25,11,25,0.00
2013-9-25,86,68,51,62,57,49,98,71,37,29.84,29.65,17,5,17,0.00
2013-9-26,93,77,36,63,59,22,77,56,33,29.72,29.63,25,13,25,0.00
2013-9-27,89,78,68,67,62,59,76,59,44,29.79,29.67,33,13,33,0.00
2013-9-28,78,64,49,70,54,45,97,72,39,30.02,29.66,26,11,26,0.00
2013-9-29,75,63,43,54,47,42,98,63,36,30.02,29.83,8,3,8,0.00
2013-9-30,82,69,51,58,53,49,93,60,40,29.85,29.69,16,7,16,0.00
2013-10-1,87,72,56,67,60,13,85,68,10,29.84,29.73,16,7,17,0.00
2013-10-2,86,74,33,73,68,14,99,83,44,29.87,29.73,83,10,83,0.00
2013-10-3,89,78,71,78,67,20,92,73,10,29.75,29.58,24,15,25,0.00
2013-10-4,91,75,56,71,64,37,94,69,46,29.91,29.61,34,15,34,0.00
2013-10-5,66,54,46,40,37,34,76,54,34,30.03,29.89,27,13,27,0.00
2013-10-6,71,55,44,44,35,25,70,50,19,29.97,29.89,26,10,27,0.00
2013-10-7,77,58,40,46,40,35,84,55,26,30.10,29.96,13,4,13,0.00
2013-10-8,78,62,48,52,47,42,80,60,34,29.99,29.84,22,10,22,0.00
2013-10-9,82,66,54,57,53,48,85,65,37,29.93,29.83,107,12,107,0.00
2013-10-10,83,69,58,63,58,54,88,69,50,29.89,29.68,24,12,24,0.00
2013-10-11,84,70,54,63,53,36,86,60,20,29.83,29.62,24,12,26,0.00
2013-10-12,73,60,45,47,43,38,85,56,30,30.14,29.80,17,6,17,0.00
2013-10-13,71,57,38,53,44,35,93,65,42,30.22,30.08,20,7,21,0.00
2013-10-14,71,62,57,64,57,48,99,86,58,30.11,29.72,25,11,25,0.00
2013-10-15,58,57,57,58,56,56,99,99,99,30.01,29.81,4,4,4,0.00
2013-10-22,71,57,45,47,43,40,83,61,38,29.99,29.88,19,10,19,0.00
2013-10-23,50,43,35,42,38,34,95,83,71,30.04,30.00,7,3,7,0.00
2013-10-24,43,40,37,31,31,30,77,70,63,30.30,30.28,2,1,2,0.00
2013-10-25,61,45,31,41,34,29,94,68,36,30.32,30.06,15,6,15,0.00
2013-10-26,50,47,38,47,41,29,87,79,57,30.09,29.99,10,5,10,0.00
2013-10-27,68,44,28,40,33,25,92,68,32,30.08,29.83,97,6,97,0.00
2013-10-28,65,59,45,58,53,35,99,80,63,29.93,29.84,16,8,16,0.00
2013-10-29,72,64,59,69,62,50,99,94,80,29.91,29.79,30,7,30,0.00
2013-10-30,71,60,51,69,58,9,99,94,10,29.88,29.63,30,8,30,0.00
2013-10-31,65,53,47,53,47,40,99,82,50,29.67,29.48,24,10,24,0.00
2013-11-1,64,52,41,47,41,37,90,69,46,30.01,29.65,24,9,24,0.00
2013-11-2,64,49,36,39,36,32,84,62,35,30.18,29.99,106,7,106,0.00
2013-11-3,73,51,40,52,39,30,75,63,47,30.03,29.71,26,16,26,0.00
2013-11-4,64,56,53,54,44,41,89,66,53,29.95,29.70,18,12,18,0.00
2013-11-5,62,55,40,61,54,39,99,97,89,29.98,29.74,27,12,30,0.00
2013-11-6,50,41,36,40,36,33,94,83,62,30.23,29.99,27,9,28,0.00
2013-11-7,63,47,32,45,38,30,96,75,44,30.33,30.17,9,3,11,0.00
2013-11-8,66,55,40,42,38,36,87,56,35,30.17,29.77,39,16,39,0.00
2013-11-9,72,63,56,48,43,12,67,49,10,30.17,29.88,103,11,103,0.00
2013-11-10,64,52,36,52,44,35,99,78,52,30.26,30.13,14,6,16,0.19
2013-11-11,53,48,28,50,45,21,97,87,72,30.64,30.17,25,7,27,0.00
2013-11-12,29,24,21,20,16,-24,81,75,10,30.86,30.64,57,14,57,0.00
2013-11-13,38,30,24,23,19,17,78,66,51,30.66,30.30,19,11,19,0.00
2013-11-14,54,48,36,36,33,22,67,56,46,30.21,29.95,21,7,21,0.00
2013-11-15,62,52,43,50,42,34,88,67,54,29.96,29.67,18,10,21,0.00
2013-11-16,78,65,52,58,55,46,95,72,39,29.68,29.41,33,17,33,0.00
2013-11-17,68,57,43,47,32,14,75,43,14,30.12,29.43,34,15,34,0.00
2013-11-18,63,51,41,37,29,24,77,45,23,30.31,30.09,11,6,11,0.00
2013-11-19,61,53,42,39,35,29,70,51,38,30.22,29.89,26,14,26,0.00
2013-11-20,62,57,51,52,44,36,80,62,42,29.93,29.80,23,13,23,0.00
2013-11-21,53,37,25,53,36,21,99,94,80,30.50,29.90,30,16,30,0.00
2013-11-22,25,24,23,21,19,18,87,80,76,30.66,30.50,26,16,26,0.00
2013-11-23,52,29,21,52,18,11,99,62,50,30.74,29.80,23,11,23,6.40
2013-11-24,28,23,18,16,12,9,71,61,46,30.71,30.29,14,6,14,0.00
2013-11-25,36,29,22,28,22,15,89,73,61,30.29,30.19,15,6,16,0.00
2013-11-26,22,22,17,20,19,9,89,88,64,30.45,30.21,4,2,4,0.00
2013-11-27,39,26,13,20,15,7,83,63,41,30.45,30.17,17,6,17,0.00
2013-11-28,31,31,31,18,18,18,60,60,60,30.43,30.16,9,9,13,0.00
2013-11-29,55,37,31,33,23,18,64,58,43,30.43,30.17,20,10,21,0.00
2013-11-30,61,43,29,38,33,26,92,70,40,30.18,30.09,13,4,14,0.00
2013-12-1,64,42,25,42,34,23,95,75,39,30.13,29.88,8,2,8,0.00
2013-12-2,59,40,30,42,36,29,99,89,52,29.88,29.62,11,5,12,0.00
2013-12-3,45,42,41,45,39,38,98,90,89,29.63,29.50,4,4,4,0.00
2013-12-4,45,40,24,45,38,12,98,91,59,30.12,29.55,20,6,23,0.00
2013-12-5,24,22,16,12,10,2,74,60,52,30.39,30.12,19,16,19,0.00
2013-12-6,21,15,14,9,5,-2,74,64,39,30.61,30.33,17,11,17,0.00
2013-12-7,22,16,14,6,0,-2,53,49,41,30.65,30.26,11,8,14,0.00
2013-12-8,23,21,16,21,12,6,91,70,53,30.25,29.94,17,8,20,0.00
2013-12-9,17,13,9,12,6,1,88,72,57,30.40,30.21,15,7,17,0.00
2013-12-10,45,26,8,22,12,2,76,58,28,30.34,30.14,16,7,17,0.00
2013-12-11,25,24,15,20,19,11,88,82,76,30.35,30.22,14,11,16,0.00
2013-12-12,25,25,25,20,20,20,82,82,82,30.35,30.35,12,12,12,0.00
2013-12-13,25,25,24,18,16,12,74,69,60,30.07,29.97,19,12,19,0.00
2013-12-14,18,17,16,9,4,3,74,56,52,30.36,30.27,15,10,15,0.00
2013-12-15,20,17,15,-1,-2,-3,46,42,39,30.52,30.48,13,11,13,0.00
2013-12-16,22,21,20,7,4,2,58,47,41,30.42,30.24,11,8,11,0.00
2013-12-17,23,18,11,21,14,5,91,86,75,30.37,29.95,17,8,17,0.00
2013-12-18,54,30,8,38,19,2,75,62,52,30.40,29.78,21,8,21,0.01
2013-12-19,61,51,34,49,44,28,96,76,62,29.79,29.61,28,10,28,0.01
2013-12-20,34,20,-18,28,15,-20,93,83,72,30.02,29.76,27,14,27,0.00
2013-12-21,27,24,22,25,20,15,95,84,73,29.86,29.60,14,5,15,0.00
2013-12-22,26,18,3,22,14,0,95,85,68,30.36,29.83,0,0,0,0.00
2013-12-23,19,12,-1,13,8,-4,91,82,71,30.60,30.36,24,0,24,0.00
2013-12-24,31,23,16,31,21,13,99,94,84,30.52,30.14,16,2,17,0.00
2013-12-25,41,31,18,32,26,16,98,85,66,30.40,30.27,10,3,21,0.15
2013-12-26,47,33,24,34,26,21,91,76,59,30.37,30.22,16,6,17,0.00
2013-12-27,51,38,24,34,15,-22,91,49,10,30.36,30.21,11,2,11,0.00
2013-12-28,54,41,30,37,32,26,88,72,52,30.21,29.87,16,7,103,0.00
2013-12-29,43,32,9,36,23,1,78,70,45,30.35,29.98,18,4,21,0.00
2013-12-30,38,23,8,21,12,3,83,64,44,30.32,30.20,15,6,17,0.00
2013-12-31,54,38,23,29,25,18,86,62,33,30.32,30.04,32,11,32,0.00
2014-1-1,38,25,11,29,19,7,89,79,65,30.37,29.94,26,12,29,0.00
2014-1-2,33,20,3,23,13,-1,86,75,61,30.45,30.35,98,13,98,0.00